Regional Weather Roundup
Issued by NWS

Home | Current Version | Previous Version | Graphics & Text | Print | Product List | Glossary On
Versions: 1 2 3 4 5 6 7 8 9 10 11 12 13 14 15 16 17 18 19 20 21 22 23 24 25 26 27 28 29 30 31 32 33 34 35 36 37 38 39 40 41 42 43 44 45 46 47 48 49 50
000
ASUS43 KDMX 031707
RWRIA

WEATHER ROUNDUP FOR IOWA
NATIONAL WEATHER SERVICE DES MOINES IA
1200 PM CDT MON AUG 03 2015

NOTE: "FAIR" INDICATES FEW OR NO CLOUDS BELOW 12,000 FEET WITH NO
SIGNIFICANT WEATHER AND/OR OBSTRUCTIONS TO VISIBILITY.

* - THESE STATIONS ARE NOT NWS STATIONS...THUS NOT UNDER NWS
QUALITY CONTROL.  THEY ALSO DO NOT REPORT WEATHER SUCH
AS PRECIPITATION OR FOG.

IAZ001>003-012>014-020>022-031>034-043>046-031800-
   NORTHWEST IOWA

CITY           SKY/WX    TMP DP  RH WIND       PRES   REMARKS
CARROLL *      SUNNY     75  55  50 NW3       30.00S
CHEROKEE *     SUNNY     75  55  50 CALM      30.00F
DENISON *      SUNNY     75  55  50 CALM      29.98F
LE MARS *      MOSUNNY   77  55  47 VRB3      30.01S
ORANGE CITY *  SUNNY     73  54  49 CALM      30.01S
SHELDON *      SUNNY     75  55  50 W6        30.00S
SIOUX CITY     MOSUNNY   77  58  51 S3        30.00
SPENCER        SUNNY     79  51  37 N7        30.00S
STORM LAKE *   SUNNY     75  54  46 CALM      30.01F
$$

IAZ055>058-069>071-079>083-090>094-031800-
   SOUTHWEST IOWA

CITY           SKY/WX    TMP DP  RH WIND       PRES   REMARKS
ATLANTIC *     SUNNY     75  59  57 SE3       29.98F
AUDUBON *      SUNNY     77  61  57 CALM      30.01F
CLARINDA *     SUNNY     77  64  65 E6        29.97F
COUNCIL BLFS * SUNNY     75  63  64 E5G12     30.00R
CRESTON *      MOSUNNY   73  59  60 N7        29.99F
HARLAN  *      SUNNY     75  64  69 E5        30.03F
LAMONI         LGT RAIN  75  60  59 CALM      29.99S
RED OAK *      SUNNY     77  63  61 NE10      29.96F
SHENANDOAH *   SUNNY     77  66  69 VRB6      29.96F
$$

IAZ047>049-059>061-072>074-084-031800-
   CENTRAL IOWA

CITY           SKY/WX    TMP DP  RH WIND       PRES   REMARKS
AMES           SUNNY     77  54  44 VRB5      29.99S
ANKENY *       SUNNY     77  55  47 VRB6      29.98F
CHARITON *     MOSUNNY   75  59  57 VRB3      29.97F
DES MOINES     MOSUNNY   80  53  39 CALM      29.97F HX  80
GRINNELL*      SUNNY     75  57  53 NW8       29.98F
KNOXVILLE *    SUNNY     75  54  46 VRB6G12   29.96F
MARSHALLTOWN   SUNNY     75  53  46 NW5       29.98S
PELLA *        SUNNY     77  61  57 N6        29.98F
PERRY *          N/A     77  59  53 NW5       30.00S
$$

IAZ004>006-015-016-023>025-035-036-031800-
   NORTH CENTRAL IOWA

CITY           SKY/WX    TMP DP  RH WIND       PRES   REMARKS
ALGONA *       SUNNY     75  54  46 NW7       30.00S
CLARION *      SUNNY     75  54  46 NW8       29.99S
ESTHERVILLE    SUNNY     75  52  44 W8        29.99S
FORT DODGE *   SUNNY     75  52  43 NW5       30.00F
MASON CITY     SUNNY     77  54  44 W12       29.99R
FOREST CITY *  SUNNY     73  52  46 W12       29.98F
IOWA FALLS *     N/A     75  52  43 CALM      30.00S
$$

IAZ007>011-017>019-026>030-037>042-050>054-066-031800-
   NORTHEAST IOWA

CITY           SKY/WX    TMP DP  RH WIND       PRES   REMARKS
CEDAR RAPIDS   SUNNY     75  57  53 NW8       29.96R
CHARLES CITY * SUNNY     75  55  50 W12G20    29.97R
CLINTON *        N/A    N/A N/A N/A N12       29.94
DECORAH *      SUNNY     73  52  46 NW12      29.93S
DUBUQUE        SUNNY     76  48  37 W9        29.94S
MONTICELLO *   SUNNY     77  52  41 NW9       29.94F
OELWEIN *      SUNNY     75  54  46 W8        29.97R
WATERLOO       SUNNY     77  53  43 W13G24    29.95S
$$

IAZ064-065-067-068-078-031800-
   EAST CENTRAL IOWA

CITY           SKY/WX    TMP DP  RH WIND       PRES   REMARKS
DAVENPORT      SUNNY     77  53  43 VRB7      29.94R
IOWA CITY      SUNNY     78  54  43 N8        29.96R
MT. PLEASANT * SUNNY     79  52  38 NW6       29.95S
MUSCATINE *    SUNNY     79  54  41 N10       29.94S
QUAD CITIES    SUNNY     80  53  39 N7        29.93R HX  80
$$

IAZ062-063-075>077-085>089-095>099-031800-
   SOUTHEAST IOWA

CITY           SKY/WX    TMP DP  RH WIND       PRES   REMARKS
BURLINGTON     SUNNY     79  61  53 NW6       29.94R HX  80
FAIRFIELD *    SUNNY     77  57  50 N5        29.97R
FORT MADISON * SUNNY     77  63  61 N5        29.95S
KEOKUK *       SUNNY     79  63  57 VRB6      29.94S HX  80
OSKALOOSA *      N/A     75  57  53 NW5       29.97F
CENTERVILLE *  SUNNY     75  59  57 N7        29.98F
OTTUMWA        SUNNY     77  58  51 N3        29.96R
WASHINGTON *   SUNNY     77  57  50 NW8       29.97S
$$

ABBREVIATIONS USED IN REMARKS
   TC - TEMPERATURES IN CELSIUS
  WCI - WIND CHILL INDEX
   HX - HEAT INDEX
  VSB - VISIBILITY
$$



USA.gov is the U.S. government's official web portal to all federal, state and local government web resources and services.